Location: *
(32.8140°S, 174.6161°E)
Time: 07:57:52
(UTC+00:00)

Cosmos 1452 Rocket - Pass Details

Date: 10 December 2019
Orbit: 767 x 775 km, 74.1° (Epoch: 21 January)

Event Time Altitude Azimuth Distance (km) Brightness Sun altitude
Rises 16:04:11 0° 200° (SSW) 3,268 7.0 -11.8°
Reaches altitude 10° 16:06:35 10° 202° (SSW) 2,335 6.2 -11.4°
Maximum altitude 16:11:52 70° 284° (WNW) 825 3.5 -10.5°
Drops below altitude 10° 16:17:04 10° 7° (N) 2,309 5.7 -9.7°
Sets 16:19:26 0° 9° (N) 3,229 6.5 -9.3°
